Date,TemperatureHighF,TemperatureAvgF,TemperatureLowF,DewpointHighF,DewpointAvgF,DewpointLowF,HumidityHigh,HumidityAvg,HumidityLow,PressureMaxIn,PressureMinIn,WindSpeedMaxMPH,WindSpeedAvgMPH,GustSpeedMaxMPH,PrecipitationSumIn
2014-1-1,32,27,19,25,13,2,89,57,39,0.00,40.00,12,6,33,0.00
2014-1-2,42,33,25,13,7,1,42,33,24,0.00,40.00,17,10,37,0.00
2014-1-3,44,38,34,16,11,8,48,33,23,0.00,40.00,20,13,51,0.00
2014-1-4,34,14,-3,26,9,-100,94,82,48,0.00,40.00,11,4,24,0.00
2014-1-5,12,6,-1,1,-6,-13,79,60,41,0.00,40.00,10,5,24,0.00
2014-1-6,30,21,5,5,-2,-13,45,36,26,0.00,40.00,20,13,43,0.03
2014-1-7,40,30,24,18,6,-3,67,37,22,0.00,40.00,16,8,29,0.01
2014-1-8,36,30,22,17,13,11,65,51,38,0.00,40.00,13,7,24,0.01
2014-1-9,33,28,23,21,14,7,84,56,40,0.00,40.00,17,8,31,0.00
2014-1-10,29,23,18,13,7,0,72,51,43,0.00,40.00,16,11,38,0.00
2014-1-11,43,36,29,22,16,-100,50,45,41,0.00,40.00,19,14,44,0.00
2014-1-12,38,28,20,28,12,1,93,53,35,0.00,40.00,16,10,37,0.00
2014-1-13,35,26,20,16,9,2,61,48,33,0.00,40.00,20,15,47,0.00
2014-1-14,34,30,26,16,11,7,66,47,32,0.00,40.00,13,8,32,0.00
2014-1-15,42,34,29,16,12,7,54,41,30,0.00,40.00,16,12,42,0.00
2014-1-16,39,34,29,8,2,-2,38,26,19,0.00,40.00,12,10,30,0.00
2014-1-17,42,33,27,10,8,6,45,36,27,0.00,40.00,14,8,34,0.00
2014-1-18,47,36,32,8,5,-100,34,27,17,0.00,40.00,16,10,29,0.00
2014-1-19,46,40,36,12,10,6,33,29,25,0.00,40.00,16,12,34,0.00
2014-1-20,44,35,25,9,4,-4,42,28,15,0.00,40.00,12,7,30,0.00
2014-1-21,50,38,25,1,-11,-18,35,12,5,0.00,40.00,15,9,38,0.00
2014-1-22,39,31,17,16,5,-7,87,39,15,0.00,40.00,10,6,25,0.00
2014-1-23,33,18,1,14,6,-9,87,64,21,0.00,40.00,8,3,17,0.05
2014-1-24,43,35,25,5,-5,-16,26,18,11,0.00,40.00,18,12,37,0.05
2014-1-25,49,40,35,13,8,-100,36,27,20,0.00,40.00,17,11,32,0.00
2014-1-26,47,34,12,19,12,8,86,43,21,0.00,40.00,15,8,41,0.00
2014-1-27,14,10,-4,8,5,-11,83,80,75,0.00,40.00,6,3,11,0.00
2014-1-28,30,16,-7,-4,-9,-13,79,35,17,0.00,40.00,11,6,25,0.09
2014-1-29,36,30,23,25,10,-6,73,44,22,0.00,40.00,18,13,42,0.01
2014-1-30,34,29,24,29,23,16,95,78,57,0.00,40.00,7,4,21,0.01
2014-1-31,30,20,5,22,16,1,92,84,68,0.00,40.00,4,2,11,0.07
2014-2-1,24,13,-2,16,6,-100,90,76,33,0.00,40.00,7,2,18,0.02
2014-2-2,31,15,-1,10,-1,-7,84,51,26,0.00,40.00,13,7,27,0.12
2014-2-3,32,20,3,11,5,-3,88,54,32,0.00,40.00,10,6,25,0.02
2014-2-4,16,7,-9,10,1,-16,86,77,66,0.00,40.00,9,3,14,0.01
2014-2-5,14,-9,-22,0,-17,-30,75,66,52,0.00,40.00,6,2,11,0.03
2014-2-6,24,9,-5,14,1,-11,76,68,53,0.00,40.00,8,3,19,0.02
2014-2-7,32,25,19,21,14,8,83,61,45,0.00,40.00,9,5,23,0.03
2014-2-8,37,30,25,27,20,14,93,66,48,0.00,40.00,11,7,36,0.05
2014-2-9,37,30,18,32,24,15,93,81,54,0.00,40.00,12,4,24,0.18
2014-2-10,41,29,19,27,18,7,89,65,39,0.00,40.00,7,3,26,0.13
2014-2-11,36,28,17,12,8,3,63,43,34,0.00,40.00,17,11,41,0.01
2014-2-12,36,30,26,26,14,5,78,50,38,0.00,40.00,20,13,43,0.00
2014-2-13,46,38,32,29,24,17,78,56,37,0.00,40.00,15,10,41,0.06
2014-2-14,41,36,30,31,13,-5,78,41,18,0.00,40.00,20,14,42,0.01
2014-2-15,50,44,37,31,20,-100,78,41,28,0.00,40.00,18,12,38,0.04
2014-2-16,49,41,24,32,20,8,96,48,27,0.00,40.00,16,9,42,0.00
2014-2-17,44,33,21,8,3,0,50,30,17,0.00,40.00,22,13,40,0.02
2014-2-18,46,39,29,12,7,3,48,26,18,0.00,40.00,17,10,36,0.01
2014-2-19,44,36,23,27,11,2,88,38,22,0.00,40.00,17,9,36,0.00
2014-2-20,24,19,15,5,-3,-7,51,38,29,0.00,40.00,21,13,43,0.00
2014-2-21,32,26,19,12,7,4,67,45,30,0.00,40.00,15,10,34,0.00
2014-2-22,33,27,23,22,13,-100,88,57,40,0.00,40.00,8,5,18,0.00
2014-2-23,44,34,20,19,15,8,84,48,28,0.00,40.00,21,10,44,0.00
2014-2-24,50,39,16,16,11,5,88,34,23,0.00,40.00,21,11,44,0.00
2014-2-25,44,24,2,24,12,-4,88,62,39,0.00,40.00,20,8,39,0.00
2014-2-26,49,34,5,9,4,-1,84,31,14,0.00,40.00,10,7,26,0.08
2014-2-27,46,38,30,30,21,2,90,51,29,0.00,40.00,11,5,25,0.02
2014-2-28,41,36,31,28,22,15,87,57,36,0.00,40.00,16,9,35,0.00
2014-3-1,41,22,13,30,14,-100,88,74,54,0.00,40.00,9,3,21,0.23
2014-3-2,45,32,22,22,17,13,80,56,30,0.00,40.00,10,4,20,0.01
2014-3-3,47,38,31,20,18,14,62,44,26,0.00,40.00,18,9,34,0.01
2014-3-4,50,38,26,29,21,16,97,54,29,0.00,40.00,12,7,26,0.00
2014-3-5,44,35,17,25,17,12,96,52,31,0.00,40.00,13,8,27,0.27
2014-3-6,56,44,37,17,13,9,40,29,18,0.00,40.00,16,10,53,0.05
2014-3-7,40,32,23,31,25,16,95,79,37,0.00,40.00,11,4,26,0.09
2014-3-8,46,29,13,21,16,9,92,62,26,0.00,40.00,9,4,22,0.33
2014-3-9,53,44,35,10,3,-5,35,19,11,0.00,40.00,16,11,38,0.14
2014-3-10,57,48,41,10,5,-1,27,18,12,0.00,40.00,14,10,43,0.00
2014-3-11,47,32,13,23,13,6,75,48,18,0.00,40.00,14,7,30,0.00
2014-3-12,49,26,5,7,1,-7,75,41,10,0.00,40.00,11,4,21,0.00
2014-3-13,49,41,34,10,5,-4,29,23,17,0.00,40.00,15,10,33,0.00
2014-3-14,50,40,29,11,8,5,39,27,18,0.00,40.00,12,7,23,0.00
2014-3-15,40,32,22,22,12,-100,80,47,26,0.00,40.00,11,6,22,0.00
2014-3-16,51,37,27,14,9,-100,47,33,20,0.00,40.00,15,10,33,0.00
2014-3-17,51,42,32,30,12,4,91,32,19,0.00,40.00,14,9,37,0.00
2014-3-18,34,26,22,14,7,4,67,45,28,0.00,40.00,16,7,39,0.00
2014-3-19,40,28,15,14,6,3,75,43,24,0.00,40.00,16,9,32,0.00
2014-3-20,49,39,32,6,1,-100,30,20,15,0.00,40.00,17,14,40,0.00
2014-3-21,40,36,25,21,9,-2,84,36,18,0.00,40.00,10,7,29,0.00
2014-3-22,27,21,9,21,16,-100,90,82,72,0.00,40.00,6,3,11,0.07
2014-3-23,46,30,4,13,9,0,89,49,19,0.00,40.00,13,6,36,0.19
2014-3-24,43,38,25,17,10,6,67,33,21,0.00,40.00,14,10,28,0.10
2014-3-25,57,35,16,22,14,8,91,52,14,0.00,40.00,14,5,28,0.00
2014-3-26,54,44,33,30,16,7,88,35,21,0.00,40.00,12,8,34,0.00
2014-3-27,42,34,25,29,18,4,94,55,22,0.00,40.00,14,7,29,0.01
2014-3-28,39,31,24,22,12,7,90,45,27,0.00,40.00,12,8,34,0.07
2014-3-29,50,40,33,15,9,-100,36,29,23,0.00,40.00,12,10,37,0.07
2014-3-30,54,44,33,32,16,10,88,34,19,0.00,40.00,15,7,37,0.00
2014-3-31,42,34,29,22,13,7,65,42,23,0.00,40.00,18,11,45,0.00
2014-4-1,42,34,25,27,21,17,92,59,38,0.00,40.00,10,5,26,0.02
2014-4-2,43,32,22,27,21,14,93,66,30,0.00,40.00,15,5,29,0.02
2014-4-3,39,30,20,26,18,6,93,65,25,0.00,40.00,9,3,20,0.09
2014-4-4,45,31,17,17,12,9,74,47,23,0.00,40.00,10,5,21,0.08
2014-4-5,46,35,25,27,17,-100,89,52,26,0.00,40.00,9,5,16,0.00
2014-4-6,43,34,24,25,15,6,89,50,21,0.00,40.00,12,7,25,0.00
2014-4-7,44,34,21,26,18,9,95,56,26,0.00,40.00,15,6,31,0.07
2014-4-8,58,46,35,24,20,14,56,37,19,0.00,40.00,13,8,26,0.03
2014-4-9,64,53,45,22,19,11,40,27,16,0.00,40.00,15,10,38,0.00
2014-4-10,59,52,40,28,21,11,61,30,20,0.00,40.00,15,11,36,0.00
2014-4-11,64,48,30,28,20,10,68,38,12,0.00,40.00,11,5,26,0.00
2014-4-12,61,52,43,32,16,-100,66,26,14,0.00,40.00,12,6,28,0.00
2014-4-13,43,27,13,36,23,9,97,85,66,0.00,40.00,10,6,18,0.05
2014-4-14,37,21,7,11,6,2,86,59,26,0.00,40.00,10,4,19,0.32
2014-4-15,49,38,28,16,11,7,42,32,26,0.00,40.00,16,10,35,0.09
2014-4-16,50,38,32,26,14,3,79,40,16,0.00,40.00,16,9,38,0.00
2014-4-17,55,36,22,26,20,13,87,61,20,0.00,40.00,10,3,21,0.00
2014-4-18,66,51,34,24,20,17,64,31,18,0.00,40.00,14,8,29,0.00
2014-4-19,62,49,38,39,28,-100,93,47,31,0.00,40.00,14,6,26,0.00
2014-4-20,64,49,33,36,30,25,95,54,23,0.00,40.00,9,5,20,0.00
2014-4-21,59,45,29,33,30,25,84,56,37,0.00,40.00,9,4,18,0.00
2014-4-22,67,51,32,34,29,26,83,49,22,0.00,40.00,11,4,25,0.00
2014-4-23,55,47,37,30,22,8,62,39,26,0.00,40.00,16,8,40,0.00
2014-4-24,56,42,30,17,10,4,35,27,19,0.00,40.00,18,10,35,0.00
2014-4-25,64,50,41,24,16,11,42,27,14,0.00,40.00,10,5,30,0.00
2014-4-26,64,52,36,26,22,18,51,32,20,0.00,40.00,9,5,27,0.00
2014-4-28,35,32,30,17,12,8,59,43,34,0.00,40.00,11,9,27,0.00
2014-4-29,38,33,29,21,14,9,71,47,32,0.00,40.00,11,7,27,0.00
2014-4-30,44,35,29,15,12,10,53,40,29,0.00,40.00,12,7,26,0.00
2014-5-1,53,40,27,16,10,4,50,31,15,0.00,40.00,10,6,29,0.00
2014-5-2,64,53,40,25,20,13,40,29,20,0.00,40.00,11,7,26,0.00
2014-5-3,70,58,50,24,18,-100,34,22,12,0.00,40.00,14,8,28,0.00
2014-5-4,71,61,41,21,14,9,44,18,9,0.00,40.00,14,7,34,0.00
2014-5-5,68,56,42,18,13,7,36,20,10,0.00,40.00,10,4,20,0.00
2014-5-6,66,55,44,28,15,7,43,22,14,0.00,40.00,11,6,24,0.00
2014-5-7,41,41,41,27,27,27,56,56,56,0.00,40.00,2,2,4,0.00
2014-5-13,42,34,27,21,18,16,62,53,39,0.00,40.00,5,4,12,0.00
2014-5-14,49,38,28,24,18,15,73,45,28,0.00,40.00,9,6,20,0.00
2014-5-15,56,41,26,30,26,23,89,60,32,0.00,40.00,12,4,23,0.00
2014-5-16,59,48,36,41,32,19,95,58,27,0.00,40.00,11,6,23,0.23
2014-5-17,63,48,35,42,35,-100,99,70,28,0.00,40.00,9,4,27,0.30
2014-5-18,72,56,35,42,28,15,94,45,15,0.00,40.00,11,5,29,0.01
2014-5-19,70,57,41,37,15,-100,59,25,13,0.00,40.00,11,7,28,0.00
2014-5-20,63,54,41,44,40,-100,89,63,49,0.00,40.00,9,4,20,0.00
2014-5-21,63,50,38,48,42,37,97,76,48,0.00,40.00,6,3,15,0.00
2014-5-22,67,51,37,46,38,-100,96,66,26,0.00,40.00,7,3,17,0.00
2014-5-23,64,50,37,46,41,34,93,73,43,0.00,40.00,8,3,20,0.08
2014-5-24,62,50,40,46,41,-100,98,77,54,0.00,40.00,10,4,15,0.46
2014-5-25,59,47,37,48,42,35,97,83,60,0.00,40.00,8,4,19,0.84
2014-5-26,65,50,37,44,39,32,95,69,29,0.00,40.00,8,3,14,0.08
2014-5-27,75,59,43,42,36,27,84,49,18,0.00,40.00,8,4,25,0.00
2014-5-28,79,61,41,39,31,16,79,42,11,0.00,40.00,6,3,14,0.00
2014-5-29,77,59,43,47,39,33,76,51,23,0.00,40.00,11,4,22,0.05
2014-5-30,65,55,49,51,45,39,96,71,48,0.00,40.00,7,3,17,0.28
2014-5-31,74,57,40,45,38,-100,98,57,22,0.00,40.00,11,5,24,0.01
2014-6-1,72,57,43,42,34,25,90,48,17,0.00,40.00,10,6,27,0.00
2014-6-2,75,66,51,45,34,23,78,36,15,0.00,40.00,11,6,20,0.00
2014-6-3,75,62,45,43,28,16,77,34,15,0.00,40.00,13,6,34,0.00
2014-6-4,75,59,40,41,31,11,76,38,9,0.00,40.00,8,4,24,0.00
2014-6-5,67,53,36,46,38,33,87,61,31,0.00,40.00,7,3,25,0.00
2014-6-6,72,55,38,45,36,24,91,55,17,0.00,40.00,9,4,28,0.01
2014-6-7,63,51,40,49,42,-100,96,74,48,0.00,40.00,10,4,20,0.01
2014-6-8,58,48,37,47,40,29,97,76,52,0.00,40.00,5,3,20,0.06
2014-6-9,64,50,32,35,26,16,82,42,22,0.00,40.00,8,5,15,0.01
2014-6-10,72,58,35,40,31,23,83,42,16,0.00,40.00,15,7,35,0.02
2014-6-11,71,58,43,47,36,29,90,49,24,0.00,40.00,11,6,24,0.02
2014-6-12,66,54,45,50,47,44,99,80,55,0.00,40.00,12,4,20,0.11
2014-6-13,76,59,38,45,32,21,95,49,13,0.00,40.00,14,6,32,0.00
2014-6-14,70,54,40,36,25,-100,65,38,17,0.00,40.00,11,6,30,0.00
2014-6-15,67,53,37,37,25,18,65,36,18,0.00,40.00,14,6,30,0.00
2014-6-16,73,58,35,31,22,16,71,32,14,0.00,40.00,13,6,40,0.00
2014-6-17,75,59,41,36,27,20,45,31,19,0.00,40.00,12,4,27,0.00
2014-6-18,66,57,43,41,31,24,85,40,25,0.00,40.00,11,6,22,0.00
2014-6-19,71,55,40,40,28,21,90,42,16,0.00,40.00,12,6,24,0.00
2014-6-20,79,60,38,37,28,24,64,35,13,0.00,40.00,9,5,18,0.00
2014-6-21,76,58,40,42,32,-100,63,41,17,0.00,40.00,15,3,29,0.00
2014-6-22,73,58,44,46,36,28,83,47,19,0.00,40.00,11,5,35,0.00
2014-6-23,70,55,37,49,42,30,95,65,23,0.00,40.00,11,4,22,0.00
2014-6-24,70,60,44,50,46,40,97,64,44,0.00,40.00,9,4,18,0.00
2014-6-25,80,64,44,47,42,31,89,49,17,0.00,40.00,6,3,25,0.00
2014-6-26,83,65,43,44,32,21,84,37,14,0.00,40.00,10,5,24,0.00
2014-6-27,70,62,52,40,32,26,52,33,24,0.00,40.00,12,7,27,0.01
2014-6-28,71,57,44,40,29,-100,82,39,19,0.00,40.00,13,8,35,0.01
2014-6-29,82,65,39,34,31,28,67,32,16,0.00,40.00,11,6,30,0.00
2014-6-30,79,63,45,37,31,23,59,33,14,0.00,40.00,11,6,29,0.00
2014-7-1,68,55,36,43,37,28,77,51,39,0.00,40.00,8,4,20,0.00
2014-7-2,72,61,51,47,43,38,71,53,40,0.00,40.00,7,4,18,0.00
2014-7-3,81,60,41,54,42,30,91,58,17,0.00,40.00,8,3,18,0.14
2014-7-4,78,63,48,52,42,38,94,51,24,0.00,40.00,11,5,21,0.23
2014-7-5,81,65,47,46,41,36,94,45,21,0.00,40.00,9,4,18,0.23
2014-7-6,83,67,50,45,38,34,62,37,17,0.00,40.00,9,4,21,0.01
2014-7-7,86,68,48,55,39,25,80,44,11,0.00,40.00,11,5,25,0.01
2014-7-8,74,62,55,55,51,45,93,70,45,0.00,40.00,9,4,17,0.01
2014-7-9,84,65,47,54,44,37,87,52,19,0.00,40.00,11,4,21,0.01
2014-7-10,83,71,56,48,41,36,53,35,22,0.00,40.00,10,5,20,0.00
2014-7-11,80,66,56,59,49,44,94,57,31,0.00,40.00,11,6,21,0.20
2014-7-12,71,61,55,60,54,47,97,78,45,0.00,40.00,9,4,18,0.84
2014-7-13,72,59,45,55,50,42,98,77,46,0.00,40.00,8,2,23,0.23
2014-7-14,74,60,45,52,49,44,98,72,42,0.00,40.00,7,3,15,0.09
2014-7-15,72,58,47,54,50,46,95,75,46,0.00,40.00,10,4,18,0.10
2014-7-16,67,55,48,53,50,46,97,85,56,0.00,40.00,8,3,16,0.48
2014-7-17,69,55,40,55,49,39,99,82,58,0.00,40.00,9,2,16,0.30
2014-7-18,76,62,46,48,43,36,95,57,25,0.00,40.00,9,4,26,0.01
2014-7-19,82,65,47,50,38,31,75,44,16,0.00,40.00,9,3,19,0.00
2014-7-20,83,61,49,42,38,35,66,46,20,0.00,40.00,11,4,26,0.00
2014-7-21,83,69,53,45,41,36,67,39,21,0.00,40.00,9,5,19,0.00
2014-7-22,85,65,47,49,40,31,70,45,15,0.00,40.00,12,3,19,0.00
2014-7-23,82,64,49,63,51,39,90,64,22,0.00,40.00,11,3,21,0.04
2014-7-24,81,73,60,49,44,38,47,35,28,0.00,40.00,12,7,27,0.04
2014-7-25,81,69,59,56,46,40,70,45,26,0.00,40.00,10,6,24,0.11
2014-7-26,79,65,55,54,46,43,77,50,31,0.00,40.00,7,5,17,0.16
2014-7-27,73,59,46,58,50,41,98,73,47,0.00,40.00,8,3,17,0.25
2014-7-28,75,60,47,57,52,46,98,79,48,0.00,40.00,7,2,15,0.43
2014-7-29,69,56,51,54,52,49,97,86,54,0.00,40.00,5,2,24,0.45
2014-7-30,54,52,49,52,50,47,99,96,89,0.00,40.00,6,2,13,1.71
2014-7-31,69,56,47,51,46,44,98,76,46,0.00,40.00,5,2,11,0.11
2014-8-1,70,55,42,48,43,38,93,68,43,0.00,40.00,5,2,13,0.01
2014-8-2,74,58,41,44,40,32,89,58,23,0.00,40.00,6,3,16,0.00
2014-8-3,78,61,46,49,44,38,82,57,30,0.00,40.00,7,3,15,0.00
2014-8-4,76,59,46,53,46,40,92,66,33,0.00,40.00,10,2,17,0.14
2014-8-5,70,58,49,52,48,45,92,70,46,0.00,40.00,8,4,19,0.15
2014-8-6,77,64,50,48,42,31,85,50,20,0.00,40.00,13,6,23,0.02
2014-8-7,73,64,48,51,44,39,79,50,34,0.00,40.00,7,3,20,0.02
2014-8-8,74,58,39,44,38,34,90,56,25,0.00,40.00,10,3,24,0.01
2014-8-9,75,59,44,48,39,36,89,53,25,0.00,40.00,10,4,24,0.00
2014-8-10,69,56,46,52,47,42,93,73,49,0.00,40.00,7,2,27,0.55
2014-8-11,75,58,41,46,42,33,94,63,24,0.00,40.00,6,2,15,0.54
2014-8-12,80,65,42,47,41,36,82,46,23,0.00,40.00,6,3,16,0.00
2014-8-13,80,61,49,56,47,40,78,61,29,0.00,40.00,6,2,13,0.25
2014-8-14,74,64,55,53,49,45,83,61,40,0.00,40.00,10,3,18,0.01
2014-8-15,76,63,56,52,44,38,78,53,36,0.00,40.00,11,7,24,0.05
2014-8-16,80,67,56,43,36,30,54,34,18,0.00,40.00,10,6,16,0.02
2014-8-17,81,67,48,45,35,25,67,35,13,0.00,40.00,11,4,20,0.00
2014-8-18,81,61,45,44,38,33,76,45,19,0.00,40.00,11,2,24,0.00
2014-8-19,78,60,44,45,41,39,87,54,26,0.00,40.00,10,4,24,0.00
2014-8-20,75,63,50,45,43,38,79,50,29,0.00,40.00,13,6,33,0.00
2014-8-21,74,62,50,46,42,39,72,50,29,0.00,40.00,12,6,26,0.00
2014-8-22,66,56,48,53,48,41,97,76,49,0.00,40.00,6,2,11,0.05
2014-8-23,63,56,51,52,41,34,98,60,41,0.00,40.00,12,6,26,0.04
2014-8-24,70,58,47,37,33,27,66,41,25,0.00,40.00,11,6,30,0.00
2014-8-25,73,56,46,47,44,37,95,66,32,0.00,40.00,8,3,14,0.09
2014-8-26,71,54,41,52,45,39,96,74,32,0.00,40.00,7,2,18,0.01
2014-8-27,67,56,49,49,44,36,93,68,36,0.00,40.00,15,4,31,0.09
2014-8-28,64,55,49,41,39,37,67,54,40,0.00,40.00,11,6,22,0.01
2014-8-29,68,57,44,47,41,37,89,56,34,0.00,40.00,8,5,22,0.02
2014-8-30,73,57,41,47,40,35,94,56,27,0.00,40.00,11,5,28,0.08
2014-8-31,69,53,44,48,41,35,94,66,34,0.00,40.00,12,5,28,0.18
2014-9-1,70,53,36,42,33,28,96,55,23,0.00,40.00,10,4,23,0.01
2014-9-2,78,60,33,38,31,29,89,41,18,0.00,40.00,11,5,25,0.00
2014-9-3,81,68,42,37,32,26,69,32,14,0.00,40.00,10,6,25,0.00
2014-9-4,69,58,48,48,38,28,97,50,33,0.00,40.00,9,4,18,0.10
2014-9-5,54,49,46,48,46,44,97,90,77,0.00,40.00,7,3,13,0.23
2014-9-6,66,51,37,49,43,36,98,77,50,0.00,40.00,9,2,13,0.05
2014-9-7,73,55,38,46,38,28,94,60,20,0.00,40.00,11,4,26,0.00
2014-9-8,70,55,42,49,42,38,88,62,36,0.00,40.00,11,4,26,0.02
2014-9-9,63,56,48,49,45,41,96,67,51,0.00,40.00,9,5,20,0.11
2014-9-10,66,55,45,47,39,31,98,62,27,0.00,40.00,10,4,22,0.22
2014-9-11,55,45,33,43,39,32,96,81,56,0.00,40.00,9,5,17,0.04
2014-9-12,50,35,27,34,28,25,96,79,41,0.00,40.00,7,4,13,0.07
2014-9-13,71,56,38,35,26,22,81,36,16,0.00,40.00,10,6,24,0.02
2014-9-14,73,55,35,40,33,29,87,50,20,0.00,40.00,10,4,29,0.00
2014-9-15,69,53,36,45,39,33,94,61,36,0.00,40.00,7,3,14,0.00
2014-9-16,79,59,40,41,34,29,81,46,17,0.00,40.00,9,4,22,0.00
2014-9-17,80,59,42,41,35,30,70,45,17,0.00,40.00,7,3,17,0.00
2014-9-18,80,60,42,40,35,33,74,46,20,0.00,40.00,7,3,14,0.00
2014-9-19,80,64,50,46,38,33,63,41,20,0.00,40.00,8,5,17,0.00
2014-9-20,75,61,43,45,42,37,79,51,29,0.00,40.00,8,4,16,0.00
2014-9-21,69,56,45,48,43,39,92,65,45,0.00,40.00,7,3,14,0.02
2014-9-22,65,54,43,47,44,42,96,72,44,0.00,40.00,8,4,22,0.12
2014-9-23,69,58,46,43,41,39,90,56,33,0.00,40.00,13,6,22,0.06
2014-9-24,76,59,44,43,39,34,76,51,24,0.00,40.00,6,3,13,0.00
2014-9-25,81,58,41,42,39,36,83,54,22,0.00,40.00,6,3,14,0.00
2014-9-26,82,62,45,43,38,34,74,47,19,0.00,40.00,9,4,16,0.00
2014-9-27,78,60,43,41,37,32,76,46,22,0.00,40.00,8,3,18,0.00
2014-9-28,64,50,39,50,41,33,100,75,55,0.00,40.00,7,3,15,0.51
2014-9-29,54,47,41,48,43,32,100,85,65,0.00,40.00,10,4,21,0.41
2014-9-30,54,46,42,36,31,28,73,58,44,0.00,40.00,13,9,30,0.01
2014-10-1,51,44,38,39,32,26,88,64,44,0.00,40.00,11,5,24,0.19
2014-10-2,46,41,35,26,21,17,61,46,33,0.00,40.00,17,8,31,0.19
2014-10-3,58,43,26,26,20,11,91,47,15,0.00,40.00,10,7,27,0.00
2014-10-4,64,52,45,26,21,18,37,30,20,0.00,40.00,18,10,30,0.00
2014-10-5,64,53,43,29,25,21,53,35,20,0.00,40.00,10,7,24,0.00
2014-10-6,68,57,49,31,27,24,45,33,20,0.00,40.00,14,10,33,0.00
2014-10-7,70,57,38,31,27,22,62,32,16,0.00,40.00,15,8,27,0.00
2014-10-8,71,51,36,35,30,23,67,48,17,0.00,40.00,8,3,15,0.00
2014-10-9,52,44,38,44,38,33,98,80,60,0.00,40.00,5,2,14,0.79
2014-10-10,53,44,36,41,39,35,100,84,59,0.00,40.00,6,2,13,0.57
2014-10-11,62,48,35,36,31,22,98,55,27,0.00,40.00,12,7,26,0.00
2014-10-12,52,44,34,34,27,21,82,53,35,0.00,40.00,12,6,29,0.04
2014-10-13,51,40,28,22,19,16,73,44,26,0.00,40.00,12,7,23,0.04
2014-10-14,69,52,34,27,20,16,59,32,13,0.00,40.00,13,6,25,0.00
2014-10-15,75,60,32,18,11,4,55,16,7,0.00,40.00,12,8,33,0.00
2014-10-16,67,55,37,33,25,16,80,34,18,0.00,40.00,13,6,36,0.00
2014-10-17,61,42,28,33,29,26,93,67,31,0.00,40.00,10,4,15,0.00
2014-10-18,70,43,28,35,28,21,92,62,19,0.00,40.00,8,3,17,0.00
2014-10-19,68,48,34,34,29,25,75,51,24,0.00,40.00,5,3,15,0.00
2014-10-20,70,48,32,34,30,28,86,56,22,0.00,40.00,8,3,15,0.00
2014-10-21,66,51,41,35,32,31,69,51,27,0.00,40.00,11,5,27,0.00
2014-10-22,56,49,41,36,32,29,76,54,36,0.00,40.00,11,7,27,0.00
2014-10-23,65,52,44,30,28,21,52,39,26,0.00,40.00,11,7,25,0.00
2014-10-24,70,57,43,24,21,17,41,26,13,0.00,40.00,13,8,31,0.00
2014-10-25,73,56,38,19,15,8,44,22,8,0.00,40.00,11,6,20,0.00
2014-10-26,65,56,39,32,27,19,60,33,20,0.00,40.00,15,9,38,0.00
2014-10-27,50,36,32,38,21,6,94,59,29,0.00,40.00,14,7,32,0.22
2014-10-28,51,40,33,11,7,4,35,26,18,0.00,40.00,11,7,24,0.01
2014-10-29,57,48,38,19,12,6,30,22,18,0.00,40.00,17,10,38,0.00
2014-10-30,55,44,27,25,22,17,81,45,30,0.00,40.00,7,4,22,0.00
2014-10-31,60,35,22,29,24,16,89,68,18,0.00,40.00,6,2,17,0.00
2014-11-1,66,53,34,27,25,21,58,35,21,0.00,40.00,10,5,19,0.00
2014-11-2,58,44,33,28,24,20,75,47,26,0.00,40.00,12,5,32,0.00
2014-11-3,40,32,22,33,25,15,96,77,44,0.00,40.00,10,4,19,0.05
2014-11-4,50,38,24,15,11,6,54,34,19,0.00,40.00,13,8,29,0.01
2014-11-5,56,44,27,21,18,11,76,37,23,0.00,40.00,13,8,32,0.00
2014-11-6,63,50,25,19,17,7,77,31,15,0.00,40.00,12,7,28,0.00
2014-11-7,60,50,32,35,18,6,98,33,15,0.00,40.00,15,9,39,0.09
2014-11-8,60,43,23,32,19,-2,98,49,11,0.00,40.00,15,7,31,0.15
2014-11-9,60,52,47,19,15,11,27,23,19,0.00,40.00,15,10,37,0.03
2014-11-10,49,31,9,30,17,4,88,62,24,0.00,40.00,15,6,39,0.01
2014-11-11,9,5,-3,4,-1,-10,81,75,66,0.00,40.00,7,5,12,0.01
2014-11-12,0,-6,-18,-9,-13,-27,72,69,65,0.00,40.00,5,3,10,0.00
2014-11-13,31,0,-21,21,-8,-29,92,70,58,0.00,40.00,7,2,15,0.00
2014-11-14,39,34,31,23,19,17,69,55,43,0.00,40.00,14,9,33,0.17
2014-11-15,35,20,0,27,12,-10,93,73,53,0.00,40.00,13,4,26,0.01
2014-11-16,27,13,-9,0,-7,-16,81,43,20,0.00,40.00,13,7,24,0.01
2014-11-17,32,23,16,-3,-10,-16,35,23,15,0.00,40.00,13,8,38,0.01
2014-11-18,35,28,20,7,3,-2,43,34,27,0.00,40.00,16,12,46,0.00
2014-11-19,44,35,30,7,4,2,31,27,19,0.00,40.00,13,9,38,0.00
2014-11-20,45,38,34,16,5,-1,43,26,18,0.00,40.00,14,9,31,0.00
2014-11-21,44,35,24,16,14,11,63,42,30,0.00,40.00,12,7,30,0.00
2014-11-22,46,38,35,24,16,11,63,41,30,0.00,40.00,18,11,41,0.00
2014-11-23,33,27,20,27,9,-1,77,48,32,0.00,40.00,12,8,31,0.00
2014-11-24,28,22,18,10,5,-2,65,49,36,0.00,40.00,15,7,30,0.00
2014-12-10,56,41,24,14,12,10,63,35,17,0.00,40.00,8,4,17,0.00
2014-12-11,55,35,21,16,12,5,72,43,13,0.00,40.00,12,5,22,0.00
2014-12-12,63,42,29,15,11,4,46,30,10,0.00,40.00,10,4,20,0.00
2014-12-13,54,39,24,17,14,10,57,36,18,0.00,40.00,4,2,10,0.00
2014-12-14,35,30,22,31,21,12,95,70,50,0.00,40.00,13,5,25,0.13
2014-12-15,32,27,23,13,9,3,54,46,35,0.00,40.00,14,11,30,0.02
2014-12-16,44,31,14,28,12,-3,64,46,28,0.00,40.00,9,4,20,0.01
2014-12-17,39,32,18,25,20,15,89,62,41,0.00,40.00,8,4,18,0.01
2014-12-18,37,27,15,15,12,9,89,56,37,0.00,40.00,10,6,21,0.00
2014-12-19,34,28,25,13,8,5,48,42,34,0.00,40.00,15,11,31,0.00
2014-12-20,41,30,29,17,14,12,58,48,34,0.00,40.00,11,7,27,0.00
2014-12-21,38,32,27,30,21,15,96,65,50,0.00,40.00,16,10,44,0.00
2014-12-22,32,25,19,25,13,3,93,61,39,0.00,40.00,10,5,24,0.01
2014-12-23,27,20,16,4,-1,-7,51,40,29,0.00,40.00,10,7,26,0.01
2014-12-24,40,30,20,14,7,-7,44,37,28,0.00,40.00,17,10,45,0.04
2014-12-25,36,28,12,25,18,8,92,69,44,0.00,40.00,13,7,34,0.02
2014-12-26,16,9,0,8,3,-6,84,78,65,0.00,40.00,5,2,11,0.02
2014-12-27,20,14,0,0,-3,-7,79,48,35,0.00,40.00,20,12,34,0.00
2014-12-28,26,19,16,10,2,-10,69,48,26,0.00,40.00,20,9,42,0.02
2014-12-29,16,5,-5,6,-1,-12,83,74,63,0.00,40.00,7,4,14,0.01
2014-12-30,0,-10,-20,-11,-18,-28,74,67,54,0.00,40.00,5,2,10,0.00
2014-12-31,29,1,-18,12,-8,-26,80,66,34,0.00,40.00,7,2,12,0.14
2015-1-1,33,10,-2,13,0,-7,81,68,28,0.00,40.00,7,2,12,0.01
2015-1-2,35,22,11,14,9,3,84,59,36,0.00,40.00,11,5,24,0.01